Topeka, KS

10:38 PM CDT on May 21, 2018 (GMT -0500)
Billard Municipal

Weather History for KTOP - December, 2012

Change the Weather History Date:

Saturday, December 15, 2012

  Actual Average Record
Temperature  
Mean Temperature 44 °F 32 °F  
Max Temperature 52 °F 41 °F 70 °F (2002)
Min Temperature 36 °F 22 °F -15 °F (1989)
Degree Days  
Heating Degree Days 21 33  
Month to date heating degree days 324 469  
Since 1 July heating degree days 1211 1463  
Cooling Degree Days 0 0  
Month to date cooling degree days 0 0  
Year to date cooling degree days 1978 1422  
Moisture  
Dew Point 43 °F    
Average Humidity 80    
Maximum Humidity 89    
Minimum Humidity 71    
Precipitation  
Precipitation 0.05 in 0.04 in 0.79 in (1940)
Month to date precipitation 0.27 0.75  
Year to date precipitation 22.54 35.86  
Snow  
Snow 0.00 in 0.20 in 5.30 in (1970)
Month to date snowfall 0.0 2.3  
Year to date snowfall 3.0 14.9  
Since 1 July snowfall 0.0 3.6  
Snow Depth 0.00 in    
Sea Level Pressure  
Sea Level Pressure 29.60 in    
Wind  
Wind Speed 10 mph (WSW)    
Max Wind Speed 23 mph    
Max Gust Speed 31 mph    
Visibility 10 miles    
Events Rain    
T = Trace of Precipitation, MM = Missing Value Source: NWS Daily Summary

Daily Weather History Graph

Daily Weather History Graph

Search for Another Location

Airport or City:

Astronomy

Dec. 15, 2012 Rise Set
Actual Time 7:34 AM CST 5:01 PM CST
Civil Twilight 7:04 AM CST 5:31 PM CST
Nautical Twilight 6:31 AM CST 6:04 PM CST
Astronomical Twilight 5:58 AM CST 6:37 PM CST
Moon 9:29 AM CST (12/15) 8:05 PM CST (12/15)
Length of Visible Light 10h 26m
Length of Day
9h 26m
Waxing Crescent, 8% of the Moon is Illuminated
Dec 15
Waxing Crescent
Dec 19
First Quarter
Dec 28
Full
Jan 4
Last Quarter
Jan 11
New

Hourly Weather History & Observations

Time (CST) Temp. Windchill Dew Point Humidity Pressure Visibility Wind Dir Wind Speed Gust Speed Precip Events Conditions
12:53 AM 48.0 °F - 43.0 °F 83% 29.58 in 10.0 mi SSE 19.6 mph 27.6 mph 0.00 in   Overcast
1:49 AM 48.2 °F - 42.8 °F 82% 29.55 in 10.0 mi South 18.4 mph 29.9 mph N/A   Overcast
1:53 AM 48.0 °F - 43.0 °F 83% 29.55 in 10.0 mi SSE 19.6 mph 29.9 mph N/A   Overcast
2:53 AM 48.9 °F - 44.1 °F 83% 29.53 in 10.0 mi South 15.0 mph 26.5 mph N/A   Overcast
3:53 AM 48.9 °F - 44.1 °F 83% 29.49 in 10.0 mi South 12.7 mph - 0.00 in Rain Light Rain
4:43 AM 48.9 °F - 45.0 °F 86% 29.47 in 7.0 mi South 12.7 mph 20.7 mph 0.04 in Rain Light Rain
4:53 AM 48.9 °F - 45.0 °F 86% 29.47 in 10.0 mi South 16.1 mph - 0.05 in Rain Light Rain
5:06 AM 48.9 °F - 45.0 °F 86% 29.47 in 10.0 mi South 13.8 mph - 0.00 in   Overcast
5:14 AM 48.9 °F - 45.0 °F 86% 29.46 in 10.0 mi South 16.1 mph 21.9 mph 0.00 in   Overcast
5:53 AM 48.9 °F - 44.1 °F 83% 29.47 in 10.0 mi South 10.4 mph - 0.00 in   Overcast
6:53 AM 48.9 °F - 44.1 °F 83% 29.48 in 10.0 mi South 8.1 mph - N/A   Overcast
7:53 AM 48.9 °F - 43.0 °F 80% 29.51 in 10.0 mi SSW 9.2 mph - N/A   Overcast
8:53 AM 50.0 °F - 43.0 °F 77% 29.54 in 10.0 mi West 11.5 mph 20.7 mph N/A   Clear
9:16 AM 50.0 °F - 44.1 °F 80% 29.55 in 10.0 mi West 11.5 mph 23.0 mph N/A   Mostly Cloudy
9:37 AM 50.0 °F - 44.1 °F 80% 29.56 in 10.0 mi West 16.1 mph 24.2 mph N/A   Overcast
9:53 AM 50.0 °F - 45.0 °F 83% 29.56 in 10.0 mi West 11.5 mph - N/A   Overcast
10:34 AM 51.1 °F - 44.1 °F 77% 29.59 in 10.0 mi West 16.1 mph 25.3 mph N/A   Overcast
10:53 AM 51.1 °F - 44.1 °F 77% 29.60 in 10.0 mi West 12.7 mph - N/A   Overcast
11:53 AM 51.1 °F - 44.1 °F 77% 29.62 in 10.0 mi West 9.2 mph - N/A   Overcast
12:53 PM 51.1 °F - 44.1 °F 77% 29.61 in 10.0 mi WSW 10.4 mph - N/A   Overcast
1:53 PM 51.1 °F - 44.1 °F 77% 29.61 in 10.0 mi West 11.5 mph 18.4 mph N/A   Overcast
2:53 PM 51.1 °F - 43.0 °F 74% 29.64 in 10.0 mi WSW 11.5 mph - N/A   Overcast
3:53 PM 50.0 °F - 43.0 °F 77% 29.67 in 10.0 mi WSW 8.1 mph - N/A   Overcast
4:53 PM 50.0 °F - 42.1 °F 74% 29.69 in 10.0 mi West 12.7 mph - N/A   Overcast
5:53 PM 50.0 °F - 42.1 °F 74% 29.69 in 10.0 mi West 10.4 mph - N/A   Overcast
6:53 PM 48.9 °F - 42.1 °F 77% 29.71 in 10.0 mi WNW 4.6 mph - N/A   Overcast
7:53 PM 48.0 °F - 39.9 °F 74% 29.73 in 10.0 mi WNW 6.9 mph - N/A   Overcast
8:31 PM 46.0 °F 43.1 °F 39.0 °F 76% 29.73 in 10.0 mi WNW 5.8 mph - N/A   Scattered Clouds
8:53 PM 45.0 °F 41.8 °F 39.0 °F 80% 29.73 in 10.0 mi WNW 5.8 mph - N/A   Clear
9:53 PM 43.0 °F - 39.0 °F 86% 29.73 in 10.0 mi Calm Calm - N/A   Clear
10:53 PM 39.9 °F 35.8 °F 36.0 °F 86% 29.75 in 9.0 mi WNW 5.8 mph - N/A   Clear
11:53 PM 37.9 °F - 36.0 °F 93% 29.75 in 6.0 mi Calm Calm - N/A   Clear